User: anonymous   Login
Location: Meetinghouse Hill
(42.7686°N, 71.7752°W)
Time: 06:27:29
(UTC-04:00)
Language:

Iridium 34 - Orbit

View from above orbital plane
View from above orbital plane
View from above satellite
View from above satellite

Ground track
Ground track

The orbit data is extracted from the following two-line orbital elements,

1 24969U 97056E   16125.49453851  .00000044  00000-0  86561-5 0  9990
2 24969  86.3942 129.6806 0002386  88.6781 271.4688 14.34218597973956
Epoch (UTC): 04 May 2016 11:52:08
Eccentricity: 0.0002386
inclination: 86.3942°
perigee height: 776 km
apogee height: 779 km
right ascension of ascending node: 129.6806°
argument of perigee: 88.6781°
revolutions per day: 14.34218597
mean anomaly at epoch: 271.4688°
orbit number at epoch: 97395

The dashed part of the orbit path shows where the satellite is in the earth's shadow,  

DLR